Location: �chenoz-la-M�line
(47.6009°N, 6.1354°E)
Time: 04:38:45
(UTC+00:00)

SL-4 R/B - Pass Details

Date: 27 January 2021
Orbit: 427 x 664 km, 51.6° (Epoch: 27 February)

Event Time Altitude Azimuth Distance (km) Brightness Sun altitude
Exits shadow 06:30:53 - 278° (W) 1,878 4.1 -6.6°
Reaches altitude 10° 06:31:19 10° 279° (W) 1,712 3.9 -6.5°
Maximum altitude 06:35:05 48° 355° (N) 706 2.4 -5.9°
Drops below altitude 10° 06:39:11 10° 71° (ENE) 1,857 5.5 -5.3°
Sets 06:41:36 0° 77° (ENE) 2,800 6.6 -4.9°
